| time (UTC) | temp F | wind direction | speed MPH | gust MPH | rain 1hr in | rain 24hr in | rain mn in | humidity % | barometer mb |
| 20260905130328 | 37 | 359 | 0.0 | 0.0 | 0.00 | 0.00 | 0.00 | 100 | 1015.9 |
| 20260905120405 | 37 | 359 | 0.0 | 0.0 | 0.00 | 0.00 | 0.00 | 100 | 1015.9 |
| 20260905110330 | 38 | 359 | 0.0 | 0.0 | 0.00 | 0.00 | 0.00 | 100 | 1016.0 |
| 20260905100347 | 39 | 359 | 0.0 | 0.0 | 0.00 | 0.00 | 0.00 | 100 | 1015.9 |
| 20260905090353 | 39 | 359 | 0.0 | 0.0 | 0.00 | 0.00 | 0.00 | 100 | 1015.0 |
| 20260905080339 | 40 | 359 | 0.0 | 0.0 | 0.00 | 0.00 | 0.00 | 98 | 1015.4 |
| 20260905070341 | 42 | 359 | 0.0 | 0.0 | 0.00 | 0.00 | 0.00 | 95 | 1014.7 |
| 20260905060332 | 43 | 359 | 0.0 | 0.0 | 0.00 | 0.00 | 0.01 | 92 | 1014.7 |
| 20260905050354 | 45 | 359 | 0.0 | 0.0 | 0.00 | 0.00 | 0.01 | 87 | 1014.2 |
| 20260905040344 | 49 | 359 | 0.0 | 0.0 | 0.00 | 0.00 | 0.01 | 83 | 1014.0 |
| 20260905030340 | 54 | 359 | 0.0 | 0.0 | 0.00 | 0.00 | 0.01 | 71 | 1013.3 |
| 20260905020335 | 56 | 70 | 0.0 | 0.0 | 0.00 | 0.00 | 0.01 | 62 | 1013.5 |
| 20260905010335 | 59 | 109 | 0.0 | 0.0 | 0.00 | 0.00 | 0.01 | 53 | 1012.5 |
| 20260905000343 | 60 | 52 | 0.0 | 0.0 | 0.00 | 0.00 | 0.01 | 50 | 1011.6 |
| 20260904230336 | 62 | 142 | 1.0 | 0.0 | 0.00 | 0.00 | 0.01 | 47 | 1010.9 |
| 20260904220359 | 62 | 198 | 1.0 | 0.0 | 0.00 | 0.00 | 0.01 | 43 | 1011.0 |
| 20260904210343 | 60 | 100 | 1.0 | 0.0 | 0.00 | 0.00 | 0.01 | 46 | 1011.1 |
| 20260904200342 | 60 | 52 | 0.0 | 0.0 | 0.00 | 0.00 | 0.01 | 57 | 1010.7 |
| 20260904190339 | 60 | 68 | 3.0 | 0.0 | 0.00 | 0.00 | 0.01 | 48 | 1010.5 |
| 20260904180400 | 58 | 79 | 0.0 | 0.0 | 0.00 | 0.00 | 0.01 | 56 | 1010.6 |
| 20260904170345 | 51 | 73 | 0.0 | 0.0 | 0.00 | 0.00 | 0.01 | 83 | 1010.2 |
| 20260904160351 | 46 | 73 | 0.0 | 0.0 | 0.00 | 0.00 | 0.01 | 100 | 1010.5 |
| 20260904150412 | 43 | 73 | 0.0 | 0.0 | 0.00 | 0.00 | 0.01 | 100 | 1010.5 |
| 20260904140335 | 44 | 73 | 0.0 | 0.0 | 0.00 | 0.00 | 0.01 | 100 | 1009.5 |